This is the latest recevied weather packets stored in our database for station/object SR9SMR. If no packets are shown the sender has not sent any weather packets the latest 1 day(s).
| Time | Temp. | Humidity | Pressure | Rain* | Wind** | Luminosity | Snow |
|---|---|---|---|---|---|---|---|
| 1778028854 | 10.56° C | 100% | 891.9 hPa | - | - | - | - |
| 1778028553 | 11.11° C | 100% | 889.8 hPa | - | - | - | - |
| 1778028250 | 11.11° C | 100% | 888.8 hPa | - | - | - | - |
| 1778027041 | 11.11° C | 100% | 898.1 hPa | - | - | - | - |
| 1778026439 | 11.67° C | 100% | 889 hPa | - | - | - | - |
| 1778025835 | 11.67° C | 100% | 895.3 hPa | - | - | - | - |
| 1778025534 | 11.67° C | 100% | 889.7 hPa | - | - | - | - |
| 1778024931 | 12.22° C | 100% | 892.7 hPa | - | - | - | - |
| 1778024630 | 12.22° C | 100% | 890 hPa | - | - | - | - |
| 1778023718 | 12.22° C | 100% | 891.1 hPa | - | - | - | - |
| 1778022632 | 12.78° C | 100% | 895.5 hPa | - | - | - | - |
| 1778021784 | 12.78° C | 100% | 895 hPa | - | - | - | - |
| 1778021604 | 13.33° C | 100% | 891.4 hPa | - | - | - | - |
| 1778021000 | 12.78° C | 100% | 891.9 hPa | - | - | - | - |
| 1778020720 | 12.78° C | 100% | 892.9 hPa | - | - | - | - |
| 1778020357 | 12.78° C | 100% | 896.7 hPa | - | - | - | - |
| 1778019755 | 12.78° C | 100% | 892.6 hPa | - | - | - | - |
| 1778019692 | 12.78° C | 100% | 891.3 hPa | - | - | - | - |
| 1778019620 | 12.78° C | 100% | 896.8 hPa | - | - | - | - |
| 1778019258 | 12.78° C | 100% | 891.3 hPa | - | - | - | - |
| 1778019140 | 12.78° C | 100% | 892.7 hPa | - | - | - | - |
| 1778018913 | 12.78° C | 100% | 896.7 hPa | - | - | - | - |
| 1778018789 | 12.78° C | 100% | 892.9 hPa | - | - | - | - |
| 1778017696 | 13.33° C | 100% | 893.6 hPa | - | - | - | - |
| 1778017394 | 13.33° C | 100% | 894.8 hPa | - | - | - | - |
* Rain since midnight (hover to see other rain measurements)
** Current wind speed in m/s (hover to see current wind gust speed)